COSMOS 1833

Last updated on Fri Jun 19 2026 20:03:24 GMT+0000 (Coordinated Universal Time)

1 17589U 87027A 26170.58593613 .00000336 00000+0 20496-3 0 9995 2 17589 70.9185 111.8260 0022872 51.1336 309.1821 14.13051879 24718
UTC large
Height (km)
Speed (km/s)
/
Latitude / Longitude
Inclination (degrees)
Orbital Period (minutes)
Azimuth
Elevation
Range (km)
Doppler Factor

Next 0 passes for location: London (51.5072 / 0.1276)

Sorry there are no passes over London.
COSMOS 1833